GFSNGP_sfc_dewp_021.txt.gz
Dewpoint
28 24 22 22 23 23 23 25 28 28 25 26 28 30 32 34 34 34 34 35 36 36 36 33 29 32 33 32 31 30 31 30 32 33 32 32 32 31 29 28 25 23 23 23
30 26 23 25 23 23 24 26 26 26 26 28 31 30 33 33 35 36 35 36 37 34 31 28 29 32 31 31 30 30 30 30 30 31 31 32 30 29 26 23 22 23 23 23
31 31 32 34 29 24 24 26 28 28 28 29 30 32 35 36 36 37 37 38 36 30 28 28 30 31 29 28 28 27 28 28 29 30 29 29 25 21 21 23 23 23 23 23
36 35 30 29 27 26 27 26 27 27 28 30 33 36 36 38 38 38 38 37 33 29 28 28 28 30 29 26 27 27 26 28 30 29 28 26 22 20 22 23 23 23 24 23
35 29 28 27 28 28 29 29 29 30 32 34 36 37 34 39 39 37 37 34 30 28 26 25 27 29 27 27 26 24 23 24 26 28 27 24 20 22 23 23 23 23 23 25
35 32 29 30 29 31 32 30 35 36 36 37 37 37 37 40 39 36 32 29 26 26 25 25 25 27 26 25 26 25 22 23 24 26 25 23 22 23 23 23 22 22 26 25
34 33 31 29 32 34 30 34 39 38 40 40 39 39 40 39 34 31 29 27 26 26 25 25 25 25 25 24 24 23 23 24 25 29 28 23 23 23 22 23 26 30 32 30
35 32 29 32 32 35 39 41 41 41 41 39 38 37 34 31 29 26 24 23 23 25 25 25 24 24 22 21 23 28 30 30 34 37 31 23 24 24 23 23 25 28 32 30
33 34 34 34 35 39 41 41 41 40 39 38 34 30 29 27 24 22 21 21 23 23 24 23 22 21 21 23 27 30 32 34 35 31 28 25 26 25 22 22 25 27 24 26
37 33 33 37 40 42 41 40 40 39 36 32 30 27 25 22 19 16 16 17 19 21 20 21 21 20 21 25 30 28 29 29 31 31 28 26 24 21 20 24 25 23 22 22
38 35 37 41 42 42 41 40 38 32 30 29 24 24 20 16 16 17 18 18 21 21 21 21 21 22 24 27 28 26 27 26 27 28 27 28 26 23 23 25 25 22 21 21
38 40 41 42 42 42 40 34 31 28 25 25 23 19 18 19 20 19 20 21 21 20 20 21 22 26 27 28 28 29 27 26 27 28 28 27 24 23 25 24 22 21 19 21
39 40 41 42 42 38 34 29 25 26 24 20 18 19 21 21 22 23 23 21 21 23 24 26 28 28 27 30 30 29 27 27 27 29 29 26 25 25 24 25 27 24 20 18
39 41 39 38 36 32 27 26 27 21 18 18 21 21 21 20 21 21 21 23 25 27 30 29 28 28 30 30 28 29 28 28 28 29 28 27 26 26 25 24 24 24 25 19
36 37 36 32 29 26 24 20 17 18 19 20 19 20 22 24 24 24 25 26 29 30 31 31 29 29 30 29 26 25 24 25 29 30 29 28 28 27 26 25 24 23 21 21
31 29 27 25 22 19 17 19 19 19 19 21 25 28 27 27 28 29 30 31 32 31 30 32 30 29 29 26 25 23 23 28 27 26 28 27 25 25 24 24 23 22 21 21
31 28 26 22 19 19 19 20 22 22 25 28 27 31 31 31 32 31 31 33 35 33 33 32 30 30 28 26 24 23 25 25 28 25 27 26 25 26 25 24 24 23 23 23
25 21 18 19 19 22 25 27 28 27 28 30 33 33 32 32 32 32 32 33 34 33 34 32 30 29 26 25 25 24 25 27 27 28 27 28 27 24 25 25 23 23 23 22
19 18 19 19 23 27 28 28 28 31 34 34 34 32 32 32 33 33 34 33 33 33 34 34 30 27 25 25 25 25 27 28 28 27 28 27 28 27 26 26 25 25 23 21
17 18 21 24 28 30 32 32 35 32 31 33 34 32 32 32 32 31 32 32 33 35 34 31 28 28 27 25 27 24 27 28 27 28 30 29 28 29 27 26 26 25 26 24
23 25 28 34 34 36 34 34 33 33 33 34 33 31 30 30 31 32 32 31 33 35 33 30 28 27 25 26 25 31 31 30 30 29 30 30 30 28 28 27 28 26 26 25
25 30 35 35 35 33 34 35 34 34 34 33 33 32 32 32 32 33 34 34 35 32 32 32 30 29 26 27 25 33 30 29 29 30 30 30 30 28 27 27 27 26 26 25
25 26 30 35 34 32 34 34 34 33 33 33 32 33 33 32 32 32 31 35 35 35 33 34 32 29 28 32 32 32 32 32 31 31 31 32 30 28 27 26 26 26 25 25
27 28 29 32 35 34 33 31 32 34 34 34 34 34 34 32 34 34 36 34 32 31 33 35 32 29 29 32 31 32 32 32 32 32 30 29 32 30 28 27 26 26 26 25
31 31 31 34 33 31 28 28 30 32 32 31 34 35 35 34 33 33 34 34 32 32 34 32 30 29 32 32 31 32 32 32 31 30 28 28 30 31 31 29 28 26 25 26
28 29 28 29 30 30 31 31 32 32 30 33 35 35 35 35 35 34 34 34 34 33 34 34 32 32 32 32 32 32 32 29 29 28 27 26 27 27 29 29 29 28 27 26
29 30 30 31 31 30 32 32 33 32 32 33 32 34 34 35 34 33 33 33 33 33 33 33 33 32 32 32 32 32 31 30 28 27 26 25 26 27 27 27 27 28 29 27

GFSNGP_sfc_dewp_024.txt.gz
Dewpoint
28 22 21 21 21 22 22 24 26 27 22 25 29 30 32 36 36 36 36 37 37 37 37 34 32 32 33 35 33 34 31 31 33 35 34 35 35 35 34 32 28 27 26 28
33 23 22 24 23 25 23 22 22 26 25 27 30 35 35 35 35 35 38 38 36 36 34 31 30 30 33 33 32 33 31 31 31 34 34 34 34 34 32 28 27 27 27 27
34 32 33 35 33 24 24 25 26 29 28 28 34 35 35 36 37 38 37 37 36 35 33 30 30 28 28 31 32 31 30 29 31 35 32 32 31 29 26 27 27 27 27 27
35 35 28 27 26 26 26 26 27 26 28 33 34 35 33 38 39 38 37 35 35 32 30 29 27 26 29 29 31 31 31 32 28 34 32 31 31 28 27 27 27 26 27 27
35 30 28 26 29 30 29 29 31 33 35 35 35 35 33 38 38 37 36 34 31 29 28 28 27 27 25 25 24 25 27 32 34 31 29 31 29 27 26 27 27 27 26 27
35 30 26 33 29 32 31 30 37 37 38 38 36 35 37 37 37 32 30 28 26 26 25 27 27 26 25 23 22 24 30 32 31 29 28 30 31 29 27 27 26 29 29 29
33 30 32 30 32 33 29 35 41 40 39 38 37 38 37 35 32 28 25 23 22 22 23 23 25 24 22 20 20 23 28 31 33 36 37 36 35 29 27 27 27 30 30 29
33 33 28 32 32 35 40 42 41 40 39 38 37 36 32 28 26 23 19 17 17 18 19 21 21 21 19 18 20 25 30 31 31 35 35 34 31 28 28 26 27 28 25 26
35 35 39 39 40 43 43 41 41 40 38 36 34 29 26 24 23 18 17 16 17 18 20 21 21 21 20 22 25 29 28 29 31 34 35 33 33 29 25 24 26 26 25 24
39 34 33 39 43 41 40 40 39 39 35 31 30 26 25 20 17 18 18 18 18 19 19 21 21 21 23 28 28 27 28 28 28 29 30 30 28 26 25 27 26 25 24 22
37 36 38 42 42 42 40 40 38 32 30 27 26 24 20 19 18 20 21 20 20 21 21 22 22 25 27 28 29 29 29 28 28 30 30 29 27 26 26 27 25 24 23 22
39 41 40 42 42 41 39 36 32 26 26 25 22 19 21 21 20 20 20 20 21 22 22 24 26 28 28 28 29 29 28 27 29 29 30 28 26 25 27 26 24 23 21 21
39 42 43 43 41 39 35 32 26 26 23 19 20 20 21 19 20 22 22 23 23 24 26 29 30 30 29 30 30 30 28 27 25 26 29 28 28 27 26 27 28 27 24 22
39 41 39 38 36 35 28 26 27 19 18 21 21 20 19 21 23 23 24 25 26 27 29 29 31 31 33 32 30 29 28 27 29 29 30 29 28 26 27 27 25 25 27 24
38 40 40 40 32 28 24 19 18 19 20 19 19 23 25 25 25 26 27 28 30 31 30 30 31 30 30 30 28 26 26 27 30 30 30 29 28 28 27 26 25 25 24 23
34 32 30 28 25 20 18 19 20 21 19 21 26 30 28 28 28 28 29 30 31 30 32 33 32 31 30 28 27 26 26 26 27 28 29 29 28 27 26 26 25 25 23 22
33 31 28 25 21 20 19 21 23 23 25 29 30 31 31 31 31 29 30 31 31 32 33 33 33 29 31 29 27 25 26 27 27 28 27 29 27 27 27 26 25 25 24 20
29 26 20 20 20 23 28 31 31 30 30 32 31 29 28 28 29 30 30 30 31 31 32 34 32 30 29 28 27 27 27 27 28 28 29 28 28 27 26 26 26 25 25 22
21 20 20 20 23 31 32 31 30 32 30 31 30 30 30 29 30 29 30 30 30 29 31 33 31 29 27 26 26 26 28 28 27 26 28 28 28 28 28 27 27 25 24 24
19 20 23 24 28 32 32 32 32 32 32 31 29 30 30 29 30 30 30 30 30 32 34 33 30 28 28 26 26 26 27 28 27 27 28 28 29 28 28 26 26 26 26 26
29 29 28 33 34 33 33 32 30 32 33 30 30 30 29 30 31 31 31 28 29 33 34 32 30 28 28 28 28 28 28 29 29 28 28 29 28 28 28 28 27 27 27 26
30 29 30 32 32 32 33 34 34 32 32 30 29 30 30 30 31 30 32 32 33 33 33 32 31 29 29 24 27 30 29 29 29 28 28 29 28 28 28 27 27 27 27 26
30 29 29 31 31 32 33 34 32 33 32 32 31 31 31 31 31 31 29 31 35 33 33 34 32 31 29 30 30 29 29 28 29 29 28 29 29 28 27 27 27 27 26 25
30 30 30 31 32 33 32 32 32 34 33 32 32 33 33 32 32 32 33 32 33 33 32 33 33 31 30 31 29 29 29 29 30 30 29 28 29 29 29 27 25 27 27 26
31 31 31 31 31 32 32 32 32 32 32 32 32 32 33 34 33 32 34 33 33 32 33 33 32 30 31 30 29 29 29 29 30 29 28 28 27 27 28 28 28 28 26 25
31 30 30 31 31 31 32 32 32 34 34 32 32 33 34 34 34 34 34 33 33 33 33 33 33 32 31 30 30 30 30 30 28 28 28 28 27 26 26 27 27 28 29 27
32 31 32 32 32 32 32 33 35 35 34 33 31 32 31 32 32 32 32 33 33 33 33 33 33 32 31 31 30 30 30 31 29 28 28 28 25 26 26 26 27 27 27 27

GFSNGP_sfc_dewp_027.txt.gz
Dewpoint
32 26 25 24 23 24 24 25 24 25 27 29 33 35 36 36 37 38 38 37 37 36 35 35 32 31 31 34 33 33 31 31 32 33 35 34 34 34 34 31 28 26 26 27
28 30 29 26 27 29 27 26 26 27 27 34 36 36 36 37 38 38 37 37 36 36 35 34 30 29 29 30 34 33 30 32 33 35 34 35 34 33 33 27 24 25 25 26
27 32 31 26 29 28 27 28 28 26 30 35 34 34 37 38 38 38 38 36 35 35 34 30 29 27 27 29 30 30 31 34 35 36 37 37 37 35 28 24 24 24 25 27
23 25 11 31 29 29 29 29 30 32 35 35 35 37 39 38 37 36 37 36 35 33 30 28 28 27 27 26 26 27 32 31 34 36 37 37 36 33 27 25 23 24 26 27
27 25 26 28 31 31 29 31 38 37 37 37 36 35 37 37 37 36 36 34 33 29 28 28 26 26 25 24 23 24 29 32 34 35 35 36 34 33 32 27 26 27 29 28
23 21 15 28 32 33 33 27 39 39 39 37 36 29 33 37 36 36 32 25 22 20 22 22 23 24 23 21 21 24 30 31 33 36 36 35 34 33 33 28 28 29 28 28
22 21 27 34 34 36 25 28 40 39 39 38 34 35 37 38 32 26 24 18 19 18 19 20 22 22 22 20 21 27 30 30 31 35 36 36 35 32 28 26 28 26 25 26
29 27 21 36 36 28 35 41 40 38 39 37 37 38 36 28 26 23 18 18 19 19 20 20 19 22 21 22 27 29 30 30 30 32 35 35 35 32 31 26 25 24 15 19
30 28 35 38 38 42 42 40 39 38 39 38 38 31 27 26 22 20 20 19 20 19 21 22 23 22 26 28 28 29 29 29 29 29 30 32 33 33 25 24 21 21 23 17
33 35 37 41 41 41 40 39 39 40 40 34 30 28 27 21 19 20 20 21 20 20 21 23 24 26 28 29 30 29 28 29 28 29 30 30 28 25 24 21 19 23 20 18
33 36 41 42 41 41 41 41 40 39 30 28 27 24 22 21 20 21 20 20 21 23 24 24 28 30 29 29 30 29 28 28 28 27 28 27 26 23 25 23 21 19 18 18
30 38 38 41 42 41 40 39 34 28 28 26 23 22 22 20 20 21 23 24 24 25 26 28 30 30 30 30 30 29 28 27 26 25 24 26 26 25 27 26 27 26 24 18
40 43 42 42 42 41 38 32 29 27 24 23 23 21 21 22 24 26 25 25 27 27 29 30 29 29 32 31 30 29 27 27 25 25 27 23 25 25 24 25 28 28 28 25
42 41 39 41 38 36 30 28 26 22 23 23 23 24 26 25 27 26 26 27 28 30 30 30 31 31 31 30 32 28 25 24 23 27 28 28 26 25 26 26 16 20 24 26
41 41 40 39 37 30 24 22 22 22 22 22 26 28 28 28 27 27 28 29 30 30 29 29 30 31 32 30 29 27 26 24 24 25 26 27 26 26 26 25 23 22 21 23
38 38 39 38 25 22 21 23 23 24 24 25 27 27 30 29 29 29 30 29 28 28 28 29 30 32 31 30 30 27 25 23 23 22 26 27 26 25 25 25 25 23 17 15
34 32 30 26 24 23 23 27 27 26 27 27 28 28 29 28 28 28 28 28 29 29 30 30 31 33 31 30 29 25 23 26 25 28 27 25 26 25 25 24 24 20 18 15
27 25 23 24 24 26 28 28 26 27 27 28 26 20 19 18 26 28 25 25 25 28 29 30 31 33 31 29 28 24 23 22 23 26 24 22 26 26 23 22 24 22 18 16
24 24 26 28 29 28 27 27 28 29 25 23 21 22 22 23 27 27 25 28 28 28 27 30 33 31 30 27 24 22 18 17 26 26 25 20 25 25 25 19 23 24 20 15
23 26 26 26 28 27 27 28 26 29 29 26 19 20 24 23 23 22 24 29 30 29 29 32 33 30 28 25 24 22 17 17 23 25 24 23 22 24 24 25 23 19 22 21
23 25 25 27 28 27 27 27 24 28 29 24 23 26 25 24 23 24 29 28 27 26 31 32 32 31 28 25 25 21 19 16 19 26 20 21 23 23 24 24 23 20 16 21
27 26 24 26 27 28 29 29 30 27 28 25 24 23 22 24 24 29 30 29 29 27 32 31 32 31 29 28 26 23 22 20 21 25 26 26 24 23 22 25 24 25 21 20
28 28 27 25 24 28 28 28 28 28 27 24 29 29 23 27 28 29 29 27 30 31 32 32 32 32 32 31 29 27 22 24 18 19 21 26 24 23 22 22 23 24 25 24
28 28 28 28 27 27 28 29 30 30 27 28 30 25 25 26 28 32 33 31 31 32 33 33 32 32 31 31 27 27 28 27 25 21 23 25 27 25 20 20 23 21 21 23
28 28 28 26 28 29 30 31 30 29 28 28 27 27 25 26 28 30 31 32 31 32 32 33 32 31 31 29 29 29 29 28 26 23 27 27 27 26 25 22 22 24 25 24
29 29 29 29 29 29 29 29 29 29 25 23 25 21 21 23 27 27 29 31 31 32 32 32 33 32 32 31 29 28 28 28 27 27 27 26 26 25 22 22 21 23 24 25
29 27 28 29 29 29 29 27 24 26 28 31 28 23 26 30 23 24 25 30 30 30 32 32 32 32 32 32 31 30 29 29 29 28 27 26 23 22 21 21 21 23 23 22

GFSNGP_sfc_dewp_030.txt.gz
Dewpoint
31 27 26 24 23 24 24 26 25 25 27 32 35 35 36 38 38 37 37 37 36 36 36 35 33 30 29 30 33 33 31 32 34 34 34 35 34 36 38 38 36 32 27 26
24 32 31 24 26 29 29 26 25 29 32 36 36 38 38 38 38 37 37 36 36 35 34 34 31 29 28 29 30 31 32 34 35 36 36 36 37 37 38 38 38 28 25 26
19 31 28 22 27 29 26 28 27 25 32 34 36 37 38 38 37 36 37 36 35 33 33 31 28 27 26 26 27 28 32 33 35 35 36 36 37 37 38 37 30 27 27 27
19 20 5 23 31 28 33 35 35 35 35 35 36 38 38 37 35 35 35 34 33 31 27 27 26 25 25 23 24 27 31 33 34 35 35 35 36 36 33 31 32 32 28 28
16 23 20 25 30 29 27 34 37 36 36 35 36 37 37 36 36 36 36 33 25 22 23 22 22 23 23 22 22 27 30 31 32 34 36 35 34 33 32 34 34 29 29 27
25 12 8 23 31 32 31 27 39 39 37 36 35 27 31 36 37 36 23 20 18 18 20 20 20 22 22 21 23 28 30 30 31 35 35 35 34 35 35 35 28 28 27 26
16 15 24 29 34 33 25 26 39 39 38 36 33 33 34 38 32 24 18 19 20 19 19 19 21 23 22 23 26 29 30 30 30 31 34 34 34 33 32 27 27 25 24 24
23 16 20 33 34 28 32 39 39 39 38 37 36 37 36 28 24 20 19 19 20 20 20 21 22 24 25 26 27 29 29 29 29 29 30 34 33 33 29 25 24 23 12 17
29 29 32 36 35 39 41 39 38 38 38 38 37 31 26 23 21 21 20 19 20 20 22 23 24 27 27 28 28 29 29 28 28 29 30 29 29 25 24 24 20 21 22 14
32 33 36 39 41 40 40 39 40 40 39 37 29 26 22 20 20 20 19 19 20 22 23 25 28 29 29 29 29 29 28 27 28 26 28 27 25 25 23 20 18 22 19 17
32 38 41 40 40 40 40 40 41 40 33 28 25 22 21 19 19 21 22 23 24 25 26 27 29 30 31 30 30 29 28 27 26 25 26 26 26 24 25 23 21 19 18 17
31 36 37 38 41 41 41 40 39 29 26 23 23 21 20 20 23 23 25 25 26 27 28 29 29 30 30 31 31 29 29 27 26 24 23 25 25 25 26 27 28 29 27 17
37 42 41 41 41 41 40 36 30 26 24 22 21 22 23 23 25 27 26 27 27 27 30 29 29 30 31 30 28 29 29 27 25 24 25 24 26 25 21 24 26 27 27 27
43 41 40 40 40 40 31 29 27 23 23 24 25 26 26 26 27 26 27 28 29 30 29 29 28 29 31 32 29 29 29 23 24 26 24 22 22 25 25 22 12 16 22 26
41 40 40 40 36 29 23 24 24 23 23 25 27 27 28 28 27 27 29 30 29 29 28 28 27 26 30 32 30 29 27 22 19 24 24 25 25 25 25 23 20 21 15 20
40 39 39 36 27 23 24 25 24 24 25 25 25 26 29 29 29 29 30 29 27 27 27 27 28 29 31 33 30 30 27 23 22 23 20 25 25 24 25 21 22 21 18 12
38 32 27 26 25 26 26 26 26 25 26 25 26 28 28 28 27 28 28 27 24 24 26 26 29 30 31 33 31 29 27 24 25 26 26 24 21 25 24 23 19 20 20 15
30 28 26 27 28 28 28 27 26 26 26 27 25 18 17 20 25 25 25 24 22 25 26 27 28 31 33 33 31 27 23 21 22 17 23 18 22 23 24 19 20 19 16 13
32 32 30 28 28 26 25 24 25 27 25 22 20 21 21 21 25 26 24 20 22 24 26 25 29 31 32 31 27 21 17 14 16 21 23 22 16 20 24 24 20 24 19 15
26 26 26 25 26 24 25 25 25 28 29 25 18 15 23 23 23 22 20 21 26 27 28 28 30 31 31 31 26 21 15 11 16 18 18 19 13 15 22 21 23 18 20 19
25 25 25 27 27 26 24 24 22 26 28 22 20 25 25 25 22 19 20 26 27 24 27 26 31 31 31 31 27 26 25 20 17 18 19 17 16 17 22 20 19 20 16 8
25 25 23 24 25 26 27 27 28 25 25 26 29 24 24 25 22 20 21 26 29 25 27 30 31 32 32 31 29 28 27 25 24 23 22 21 24 21 16 21 22 21 20 14
27 27 27 24 22 27 28 27 25 25 25 25 25 25 29 27 24 23 25 27 28 26 29 31 31 32 32 32 32 29 27 26 22 22 22 21 21 23 24 23 21 24 24 23
27 27 27 28 25 26 26 28 28 29 27 27 26 25 27 25 21 25 27 26 27 29 31 31 32 32 32 32 31 30 28 27 26 26 24 21 22 25 25 20 19 21 21 21
27 28 28 25 27 28 29 29 29 28 27 29 28 29 29 30 28 26 21 22 26 30 30 30 32 32 32 31 30 29 28 28 28 29 27 25 26 26 25 23 20 21 22 22
28 28 29 29 29 29 29 27 27 27 26 27 23 25 31 30 27 24 21 21 23 24 29 29 29 31 31 31 32 31 30 29 29 29 28 27 27 27 25 21 21 20 20 21
28 25 28 28 29 29 28 28 29 31 29 31 30 28 27 28 25 21 21 22 27 23 21 24 27 27 28 29 30 31 31 31 29 29 29 29 28 27 25 22 21 20 19 20

GFSNGP_sfc_dewp_036.txt.gz
Dewpoint
27 28 25 21 21 28 25 24 21 21 24 25 33 34 35 36 37 36 36 36 35 34 34 32 28 27 26 26 27 28 30 31 32 34 34 34 34 35 35 35 36 37 38 37
25 30 28 25 22 23 26 24 26 27 26 33 35 37 37 37 37 36 35 35 34 32 29 26 25 24 24 24 25 27 30 31 33 34 34 33 34 34 34 34 34 37 30 29
20 26 20 16 21 23 25 28 26 26 26 35 35 36 37 37 37 35 34 34 34 27 25 24 24 23 21 23 25 25 29 31 33 33 32 33 34 34 32 30 32 32 31 29
14 17 3 15 26 26 26 27 29 31 32 35 35 36 37 38 37 34 34 34 29 25 23 23 22 21 22 22 23 26 28 30 30 30 31 33 32 32 31 33 35 35 31 26
15 17 14 14 28 30 27 25 34 32 34 35 37 36 36 38 35 33 34 32 23 22 21 20 19 21 22 22 21 25 28 29 29 30 31 31 30 31 32 34 33 28 26 25
19 9 4 17 28 32 30 25 33 35 34 35 36 30 33 37 36 35 30 19 18 19 19 20 20 22 22 21 24 27 28 28 30 29 28 28 29 33 32 33 32 26 24 25
13 12 19 23 30 32 24 23 36 36 35 36 34 35 34 37 36 24 19 19 19 20 20 21 22 23 23 24 25 27 28 29 29 28 28 29 31 32 33 31 28 25 23 24
22 14 18 28 32 27 31 33 37 37 36 36 35 34 36 30 21 20 20 19 20 21 22 23 24 25 25 26 27 28 29 29 28 29 28 29 30 33 27 26 24 24 11 16
27 27 29 30 32 35 35 35 37 38 37 37 36 37 29 24 24 21 19 19 21 22 23 26 26 27 27 28 29 29 29 28 28 29 26 27 27 26 25 24 21 19 21 15
28 27 31 33 34 39 39 38 38 39 39 39 37 32 26 22 20 19 21 22 23 24 25 26 28 29 29 29 30 29 29 29 29 28 26 27 27 25 24 22 18 21 18 18
30 32 34 37 39 37 39 39 39 40 39 37 31 25 21 21 20 21 23 23 25 26 26 27 29 29 29 29 30 29 30 29 30 30 27 26 26 26 26 25 22 20 19 18
28 31 32 32 37 39 39 40 39 33 29 26 25 25 23 21 23 24 23 25 26 27 27 29 29 28 28 29 29 30 29 29 30 30 27 25 25 25 27 26 27 28 28 20
32 37 37 38 39 40 39 39 31 28 26 23 24 24 24 24 25 26 25 26 27 27 29 28 28 27 28 28 28 30 30 30 30 29 28 26 24 25 23 24 25 25 26 26
39 39 37 37 38 40 34 28 26 25 27 29 28 26 25 25 27 26 25 27 28 29 28 27 27 27 28 28 28 30 31 30 29 28 28 27 24 21 24 23 19 15 21 25
40 39 39 34 26 25 25 28 32 33 31 28 27 27 26 27 27 26 27 28 29 28 28 27 27 27 27 28 29 30 32 31 29 25 24 22 22 21 20 22 23 18 16 18
38 31 28 29 32 34 35 35 34 31 27 27 26 25 27 28 27 28 28 28 27 26 27 25 23 26 27 28 30 31 32 31 28 25 26 25 24 20 21 21 22 22 20 16
31 30 32 34 35 35 35 34 32 29 27 25 25 26 28 27 26 27 27 26 22 22 24 23 24 26 27 28 28 30 32 31 28 27 26 22 25 19 18 19 20 23 19 16
35 36 35 35 34 33 32 30 27 26 25 26 26 23 21 22 25 25 24 23 20 21 23 25 25 26 27 28 29 31 30 30 28 25 21 17 17 19 18 16 17 18 19 18
37 36 36 36 35 30 24 23 24 27 26 25 23 25 24 23 24 24 23 20 21 21 25 24 26 25 27 28 30 30 29 29 26 23 22 16 13 16 13 13 15 17 18 17
33 32 29 26 26 25 26 26 26 27 28 26 23 24 24 24 23 21 18 21 25 27 26 26 25 25 25 28 29 29 29 28 25 22 19 18 17 17 17 15 15 16 16 17
24 25 26 27 27 26 25 24 23 25 27 22 19 22 22 23 23 20 24 25 26 24 25 23 25 26 27 27 30 30 30 29 25 23 23 22 21 20 21 20 20 19 19 14
25 25 23 23 24 25 25 26 26 21 21 21 20 18 18 24 23 23 26 24 28 23 25 25 26 25 28 29 29 30 30 30 28 26 25 25 25 24 23 23 23 22 20 19
27 26 26 23 22 26 26 25 20 19 20 22 22 23 22 25 26 24 26 25 24 24 25 26 29 29 28 29 29 29 28 28 29 28 28 27 26 26 26 25 24 23 24 23
27 27 28 28 24 25 26 28 28 28 24 25 24 23 22 25 26 24 26 25 24 27 22 27 24 19 18 23 28 28 29 29 28 28 27 25 26 26 26 25 25 25 25 24
27 28 27 26 27 27 27 26 26 25 26 26 27 27 25 26 26 28 27 29 28 24 23 22 19 18 17 17 17 16 16 17 19 21 24 28 28 26 24 25 25 26 26 25
27 26 26 27 25 23 22 21 22 22 22 23 24 27 29 29 28 28 30 26 22 21 21 16 11 7 10 12 12 12 14 16 17 17 19 21 24 27 28 27 27 27 26 25
23 20 21 21 21 20 19 19 19 20 21 22 23 23 27 29 30 30 27 20 16 18 17 11 6 11 10 9 7 7 7 8 8 9 10 11 12 14 23 28 28 27 25 23

GFSNGP_sfc_dewp_039.txt.gz
Dewpoint
27 28 26 22 23 29 26 26 26 23 23 24 28 35 36 37 37 36 36 35 35 35 34 32 30 30 28 27 27 28 27 31 33 35 35 34 33 35 34 35 35 35 37 37
27 29 28 25 24 24 28 26 25 26 25 28 33 36 36 36 36 36 36 35 34 33 31 27 26 25 25 25 26 28 27 31 34 35 33 32 34 34 34 34 32 33 31 30
25 24 21 23 24 25 25 26 27 25 26 35 35 36 36 37 37 36 35 35 34 30 27 26 25 24 22 23 26 26 27 31 32 32 31 32 32 32 33 34 33 33 34 34
24 21 17 20 27 25 25 26 27 29 32 34 35 37 37 38 38 37 35 34 33 27 25 25 24 22 24 23 24 25 29 30 29 30 31 31 30 30 33 33 34 35 33 28
26 19 17 15 22 28 29 25 30 29 32 35 37 37 37 38 38 37 35 35 30 25 24 23 21 22 23 23 23 25 28 28 29 30 30 29 29 31 31 31 33 32 29 26
24 21 17 20 23 32 30 28 30 34 35 36 36 36 35 39 37 34 35 25 21 22 21 22 22 23 23 23 24 26 28 29 30 30 29 29 30 30 31 32 31 32 27 25
21 26 24 24 26 32 24 26 33 36 36 37 36 39 36 39 36 34 23 19 20 21 21 22 25 25 24 24 26 28 29 30 30 30 29 29 29 30 32 32 31 31 27 26
24 25 24 28 32 32 35 34 35 38 37 39 37 36 37 36 27 20 20 21 21 22 22 24 26 27 25 26 28 30 30 30 29 30 28 27 28 29 30 28 28 27 28 27
29 30 33 31 35 36 36 35 37 38 38 38 37 37 31 25 21 23 21 20 22 22 24 26 26 28 28 29 29 29 30 30 30 29 29 27 27 27 26 27 28 27 24 26
31 30 31 34 35 36 39 39 39 40 40 38 37 35 25 23 20 20 21 22 23 23 24 24 27 29 29 29 30 29 30 30 29 27 29 29 26 26 25 26 26 25 24 24
31 33 34 34 38 39 38 40 40 40 40 39 34 26 23 21 23 24 25 24 24 25 25 25 29 29 28 28 29 28 29 29 29 29 30 30 26 25 25 27 28 25 25 26
33 33 33 34 37 41 40 40 40 36 30 28 25 25 28 28 26 26 24 23 25 26 26 27 28 27 27 28 28 28 28 28 30 30 30 29 26 24 28 28 27 27 28 29
35 38 37 39 41 41 40 36 30 28 27 28 32 33 30 27 26 26 25 25 26 26 28 28 27 27 27 29 29 29 28 29 30 31 30 29 28 28 27 27 28 28 27 26
41 41 39 39 37 30 28 29 33 34 34 33 30 31 31 26 26 25 24 25 28 28 28 28 27 27 28 28 28 30 30 31 31 31 31 31 29 29 29 28 26 26 26 24
39 36 32 29 30 31 34 35 34 33 32 31 30 28 26 25 26 27 28 28 28 28 28 27 27 27 28 28 28 29 30 31 32 31 31 31 30 29 28 28 27 25 26 24
31 32 34 35 35 34 34 33 33 32 32 32 30 26 26 29 30 29 28 29 28 27 27 27 27 27 28 28 28 30 30 30 32 32 31 30 29 28 28 27 26 25 25 26
33 34 34 34 34 34 34 34 33 32 32 29 27 28 30 29 28 28 28 29 28 28 28 27 27 28 28 28 29 29 28 30 32 31 30 30 30 28 28 27 26 25 26 29
36 35 36 36 34 34 33 33 32 30 27 27 29 28 28 27 27 27 28 28 27 27 28 29 28 28 28 28 30 30 30 29 30 30 30 30 29 29 28 27 25 25 26 26
35 35 35 35 35 33 29 26 26 28 29 28 27 28 28 27 27 27 27 25 26 27 29 30 28 29 28 29 29 31 31 31 30 29 30 28 28 27 27 26 26 26 26 25
33 32 28 26 27 28 28 28 28 28 28 28 27 26 27 28 28 26 26 26 28 29 31 29 29 28 29 29 29 30 29 29 28 30 30 28 28 28 28 25 25 26 26 26
25 26 26 27 27 27 25 25 24 27 28 25 25 26 26 26 26 27 27 28 30 30 29 27 28 29 30 29 29 31 30 30 30 30 30 29 29 28 28 28 28 28 28 28
27 27 25 25 26 26 28 28 27 26 26 25 25 23 24 26 28 27 27 28 30 27 28 29 30 29 29 29 29 32 31 30 29 30 31 30 29 28 29 29 28 29 29 29
27 28 27 26 26 27 28 28 26 26 24 25 26 26 27 27 28 27 26 30 29 30 27 30 30 30 29 29 28 28 28 29 30 30 30 30 30 30 30 30 30 30 30 29
29 28 28 28 27 25 23 20 23 24 24 25 25 25 26 26 27 28 30 29 28 29 30 30 29 25 22 24 22 21 21 20 20 21 21 21 25 27 30 30 29 30 30 29
27 26 25 24 21 19 18 18 19 20 20 20 22 23 23 25 25 28 30 30 31 31 29 26 22 19 20 19 17 16 17 17 16 16 16 17 19 20 23 25 28 29 30 30
22 21 21 21 18 17 15 15 16 17 16 18 20 21 21 22 23 26 26 29 31 28 26 22 19 17 16 14 13 13 13 12 12 11 11 13 14 14 15 16 19 27 31 31
16 15 15 15 14 13 12 12 13 12 14 17 16 17 18 19 21 21 21 26 27 23 19 17 15 13 13 12 11 10 10 10 7 7 8 8 9 11 12 13 16 17 19 22

GFSNGP_sfc_dewp_042.txt.gz
Dewpoint
26 25 25 23 23 27 24 23 25 15 12 11 18 24 29 35 39 39 39 37 37 36 36 35 33 33 33 30 26 25 23 22 25 31 33 32 32 33 33 33 33 32 32 33
28 28 27 25 24 23 26 25 24 22 20 22 25 30 32 37 38 38 38 37 36 36 34 32 32 30 27 24 24 26 24 24 27 32 31 31 32 33 32 32 32 32 31 31
24 25 24 32 27 24 22 25 26 24 24 26 28 30 33 36 37 37 37 37 36 34 32 30 29 25 22 23 26 25 24 24 29 30 29 30 30 30 31 32 32 32 32 33
31 27 29 15 23 22 24 24 24 25 25 26 28 33 35 36 37 38 37 37 35 32 29 26 24 23 24 23 24 24 23 25 27 28 28 29 30 30 31 31 32 33 33 31
36 21 18 12 17 19 22 18 25 25 24 30 35 36 37 38 38 39 38 37 34 30 26 24 22 23 22 22 21 21 23 25 26 28 28 28 29 30 31 31 31 32 31 31
31 34 32 21 27 32 30 24 29 30 31 34 36 36 23 39 39 39 37 34 30 25 23 22 23 24 22 20 20 22 24 26 27 28 28 28 29 29 30 30 29 30 31 30
33 36 28 23 24 33 24 24 31 33 33 37 35 35 38 40 40 37 34 28 24 22 23 23 24 24 21 18 21 24 27 28 27 27 28 29 28 28 28 29 30 30 31 30
33 35 30 26 32 31 34 35 33 36 36 39 39 39 39 40 37 31 24 21 24 23 22 23 23 23 17 18 21 27 28 27 27 28 28 27 29 28 27 28 27 28 33 31
31 31 32 32 34 37 37 37 37 38 37 39 40 38 37 35 31 25 23 22 22 22 23 24 23 23 22 23 26 26 27 27 29 28 27 26 28 27 25 25 26 27 26 27
32 27 30 33 34 35 36 37 37 38 39 39 39 38 35 28 25 24 24 27 30 24 21 21 23 25 25 26 27 25 26 28 28 28 26 26 26 26 25 26 26 24 24 25
32 31 30 32 36 39 40 41 41 41 41 41 39 35 27 25 26 30 34 28 25 22 22 21 23 25 25 25 27 26 27 27 28 28 28 27 26 26 25 26 26 25 24 26
35 35 36 35 40 42 41 41 41 38 36 35 33 27 28 31 35 34 31 25 24 25 24 23 24 24 25 26 26 27 27 27 28 29 28 27 27 25 28 27 28 29 28 28
37 40 40 42 38 39 36 36 34 32 34 34 34 35 35 34 32 29 27 27 24 23 24 25 26 25 26 27 30 29 28 28 28 29 29 29 29 29 28 29 29 29 29 29
41 41 39 34 33 34 35 35 35 33 34 35 35 34 33 32 30 28 25 24 25 26 26 26 26 26 27 28 29 29 30 30 30 30 30 30 30 31 31 29 29 30 29 27
34 35 34 34 35 34 33 33 34 35 35 34 34 32 29 26 25 24 26 28 28 28 27 26 26 26 27 30 29 29 29 30 31 33 33 32 31 32 31 30 28 26 27 26
36 36 35 33 33 34 34 34 35 35 32 31 32 30 26 27 28 28 28 29 29 27 27 32 32 29 30 30 30 30 29 30 30 30 32 33 32 31 31 31 29 27 26 26
34 33 35 35 36 35 34 33 31 30 33 32 28 28 28 29 29 28 28 30 35 33 34 34 33 30 30 30 30 30 30 29 29 29 28 29 31 30 31 31 30 28 29 32
35 36 36 35 34 33 33 33 31 29 28 29 32 33 33 33 30 31 33 35 33 33 33 33 33 32 31 31 30 30 33 33 32 33 31 31 29 30 31 31 30 30 30 30
34 34 34 33 31 27 26 26 28 29 32 33 33 33 33 33 30 30 32 32 31 33 29 32 30 31 31 30 30 32 34 33 32 31 32 31 32 30 31 32 32 32 30 30
29 26 26 27 28 29 30 30 34 29 30 31 30 33 33 33 33 32 32 31 32 31 31 31 31 31 31 31 30 31 33 33 31 30 30 30 32 32 32 31 32 32 32 32
26 27 28 28 28 31 32 32 32 30 30 30 29 28 28 29 30 31 30 27 27 33 31 30 30 31 30 31 31 33 33 33 32 33 31 31 31 32 32 32 32 31 31 32
27 29 32 32 31 30 31 28 26 28 27 26 27 27 27 26 28 28 29 28 28 30 30 31 31 31 33 32 32 33 32 30 31 32 32 32 31 31 31 32 31 32 32 32
29 30 30 30 30 28 25 24 25 26 24 24 24 24 23 23 23 24 24 25 28 30 31 32 32 31 31 32 32 31 29 27 26 26 26 26 26 27 28 29 31 32 32 32
30 28 28 26 24 21 19 17 18 20 22 22 22 23 22 23 24 21 23 25 26 27 30 33 32 29 26 30 29 27 25 25 24 23 22 20 22 22 22 22 24 28 29 31
25 23 22 21 18 16 14 13 14 14 15 14 17 18 19 19 21 22 25 26 23 25 31 27 22 22 25 24 23 22 22 21 19 19 19 19 19 19 19 19 19 21 22 25
20 19 18 16 15 13 12 11 13 14 13 16 16 18 19 19 19 20 21 21 23 24 23 22 20 20 21 19 19 17 18 17 16 15 15 15 15 15 16 15 16 18 19 21
15 15 15 14 11 11 11 11 13 13 14 16 14 16 16 18 18 17 17 17 18 18 18 17 16 14 14 14 13 13 13 14 11 9 11 11 11 11 11 11 13 14 16 17

GFSNGP_sfc_dewp_048.txt.gz
Dewpoint
19 20 20 24 24 21 20 24 28 27 19 17 16 23 26 27 29 29 30 36 39 43 44 44 44 44 42 40 40 39 37 34 34 33 33 34 35 35 35 36 34 34 34 34
31 28 25 25 23 22 21 21 18 21 20 20 23 26 25 25 23 25 29 34 40 41 42 42 41 41 38 38 38 38 34 32 32 30 31 34 34 35 35 34 33 34 33 33
34 28 26 29 28 23 21 21 22 23 25 24 22 22 26 28 27 31 31 33 39 40 41 42 40 38 36 36 35 31 33 32 29 29 31 33 31 31 32 33 34 34 33 33
37 32 28 23 19 16 19 17 16 16 20 19 27 29 28 30 32 33 36 35 40 41 41 40 38 36 36 31 31 33 32 27 25 28 30 31 31 31 32 33 33 33 32 33
37 29 25 22 17 19 20 20 23 22 22 22 28 30 34 32 33 34 37 39 41 41 40 36 34 31 29 30 30 28 24 23 25 28 28 29 29 31 32 33 32 31 31 32
36 35 30 29 24 24 23 27 24 24 27 27 27 36 36 36 35 34 37 39 39 36 34 33 29 30 29 27 26 25 23 25 27 28 28 28 30 31 32 31 30 30 31 33
36 37 35 27 26 28 27 34 33 31 31 35 32 40 40 39 38 38 38 38 34 32 30 30 33 31 29 28 24 23 26 28 28 28 27 29 30 31 31 31 30 30 31 31
41 35 32 25 26 29 38 37 35 35 37 40 41 41 40 38 39 38 32 29 28 28 30 30 27 27 22 25 27 28 27 28 27 27 27 26 31 31 30 29 29 29 30 31
37 37 37 30 33 36 37 37 38 39 37 38 39 37 38 38 37 31 26 27 31 31 31 31 29 27 22 25 24 28 28 27 27 28 28 28 30 30 29 27 29 29 29 29
36 27 28 32 37 40 39 40 39 40 41 40 40 41 39 36 27 27 32 32 32 30 29 27 25 29 30 28 29 25 27 27 28 29 29 29 28 28 28 30 29 29 29 28
33 29 34 38 42 41 41 42 41 39 37 38 39 37 31 32 33 33 31 29 28 29 31 30 31 28 24 24 27 26 27 28 29 30 31 31 30 29 29 30 31 29 29 29
41 40 40 39 38 39 38 37 36 34 34 34 34 34 34 34 32 29 30 32 34 33 30 25 22 22 24 25 25 27 27 28 31 32 32 30 29 29 30 30 31 30 30 29
39 40 40 38 37 37 37 37 37 36 36 34 34 33 32 32 33 33 35 33 28 25 24 23 23 24 24 27 30 30 30 31 31 30 31 30 30 30 28 31 32 31 31 30
38 39 37 38 36 37 36 35 36 34 33 33 33 33 33 32 32 30 27 25 23 22 23 24 24 25 28 27 29 30 31 30 30 31 31 32 32 31 31 30 28 29 31 30
37 38 38 36 36 35 34 34 33 34 34 33 32 30 27 24 23 22 22 23 26 25 25 26 28 29 30 33 31 31 31 31 31 32 33 32 32 31 30 30 30 30 30 29
36 36 35 34 34 33 33 33 33 32 31 30 28 28 25 24 24 24 25 33 32 31 31 30 31 33 33 32 31 30 29 31 31 31 32 32 34 32 32 31 29 29 29 28
35 34 34 33 33 33 32 32 30 27 27 29 31 32 31 31 30 31 31 33 33 33 33 32 32 32 33 32 31 30 30 31 30 31 31 33 33 32 32 32 31 29 28 29
36 35 34 34 34 33 29 29 31 31 31 32 31 31 31 30 31 30 29 29 28 28 29 29 28 29 28 27 28 28 29 29 30 30 33 33 32 31 32 31 29 29 29 29
34 33 33 31 29 28 29 30 32 32 31 30 30 30 30 29 26 27 29 26 25 25 26 26 26 26 26 27 29 28 29 30 30 30 32 31 31 31 30 29 28 28 30 30
30 28 28 30 31 32 32 33 32 31 29 27 25 24 24 22 24 25 25 25 26 25 22 23 24 23 22 24 26 27 28 29 28 29 31 31 32 31 30 29 29 29 31 31
28 29 31 31 31 31 30 29 27 25 25 24 24 23 22 23 24 23 22 20 22 22 22 21 21 24 25 22 23 27 29 28 28 29 29 31 30 28 27 26 27 28 28 29
30 32 32 31 30 27 25 25 26 25 24 21 20 19 19 20 20 21 21 21 21 20 20 20 24 17 17 19 24 25 26 26 27 27 27 27 26 24 23 23 22 22 23 23
32 32 31 30 28 25 23 21 25 24 21 20 21 21 20 18 20 19 18 19 20 18 18 21 18 13 14 20 20 21 20 22 20 20 22 22 23 22 22 21 20 20 20 20
32 31 29 26 25 22 20 15 16 19 21 21 21 19 19 20 20 20 20 18 16 17 18 19 16 13 13 16 16 16 16 18 15 15 16 17 18 18 18 17 15 16 16 17
28 26 24 25 21 18 15 12 14 16 16 16 18 16 18 19 20 19 19 19 16 17 17 17 16 13 14 13 13 13 12 13 12 11 11 12 12 13 13 12 12 11 12 13
26 23 18 17 15 14 14 14 16 17 15 18 18 19 21 21 19 18 18 16 16 15 16 16 15 15 13 11 11 11 10 10 9 9 9 9 9 9 9 9 9 9 10 9
19 22 19 17 14 14 15 16 17 16 17 18 15 18 19 19 18 16 15 16 16 15 14 14 14 13 12 10 10 9 9 8 6 8 7 6 6 6 6 7 7 9 8 8

GFSNGP_sfc_dewp_051.txt.gz
Dewpoint
25 25 28 26 27 26 25 27 26 27 25 25 24 24 25 30 31 29 34 40 41 43 47 48 48 45 41 40 40 39 38 35 32 33 33 34 34 34 34 33 33 34 34 34
31 32 29 27 26 26 25 24 22 24 23 25 25 25 24 24 24 28 29 36 42 46 46 45 44 39 39 39 38 39 33 33 32 33 34 34 33 32 32 33 32 32 33 33
29 27 26 23 26 25 25 25 25 23 25 28 28 28 28 29 31 30 32 36 39 42 42 42 39 37 37 37 34 34 33 32 31 33 32 31 30 30 31 31 31 33 32 32
28 26 16 27 24 19 20 22 23 23 28 29 29 32 32 33 32 34 36 37 40 40 38 37 36 36 33 32 33 33 32 27 29 31 30 30 31 31 30 31 31 33 31 31
25 25 27 25 23 24 23 24 26 25 26 29 30 35 36 35 34 34 38 40 38 36 33 30 29 30 31 30 28 25 25 26 29 30 30 31 31 30 30 31 31 31 31 31
29 24 17 29 25 27 26 24 31 31 33 35 31 33 36 38 38 38 38 34 31 28 30 30 29 28 28 28 28 26 27 30 32 33 32 31 30 30 31 31 29 30 29 31
25 24 30 34 29 32 20 26 34 34 35 37 38 39 39 39 32 30 31 30 31 30 29 28 29 27 26 27 28 30 32 33 32 32 30 29 29 30 30 30 29 29 29 30
31 31 26 31 29 27 36 36 37 36 38 38 38 40 40 34 29 30 30 29 30 29 28 26 26 27 28 27 29 31 30 30 29 29 28 27 30 30 30 29 28 27 24 27
34 33 38 37 38 40 40 39 39 40 41 41 40 39 35 28 31 31 31 31 32 31 29 28 26 27 28 27 27 29 29 28 28 29 28 28 29 28 28 27 26 26 27 25
31 34 37 41 42 41 41 41 40 38 38 40 40 37 30 32 32 31 31 29 29 28 28 29 30 30 30 31 30 28 27 27 28 28 29 29 29 29 28 26 25 27 27 26
32 40 40 40 41 42 40 39 35 36 35 35 34 34 32 31 30 29 29 30 32 32 32 31 32 32 30 25 27 26 27 28 28 29 29 29 30 30 29 28 27 26 26 27
33 40 39 37 39 39 37 36 36 35 34 34 34 33 31 29 29 31 33 34 34 33 33 28 23 23 24 25 25 26 27 27 28 28 28 29 29 29 30 30 30 31 31 29
40 38 38 37 37 37 37 36 35 34 34 32 32 32 33 33 34 35 34 34 33 24 24 23 24 24 26 29 29 28 27 27 28 29 29 29 29 29 29 29 31 32 32 32
39 38 36 37 36 36 35 34 34 33 33 34 34 33 33 32 32 32 29 25 26 26 27 28 28 28 29 30 31 29 29 29 29 29 29 29 29 29 31 30 29 28 29 30
37 38 36 36 35 34 34 34 33 33 34 33 32 29 27 26 25 29 31 31 30 30 30 29 29 30 32 33 32 31 30 29 29 28 29 29 31 31 31 30 29 28 28 27
36 35 34 34 33 33 34 33 33 31 29 29 29 30 30 30 30 31 31 30 29 27 28 25 27 30 30 30 27 25 27 27 26 27 28 29 29 29 31 31 30 31 29 28
34 34 34 33 33 33 33 31 29 30 30 30 29 30 30 30 29 27 27 28 25 23 26 26 25 24 25 25 25 26 27 27 26 27 27 27 28 29 29 31 29 30 29 26
35 34 34 34 32 30 31 32 31 30 30 29 29 28 26 23 24 25 26 25 20 21 22 22 22 23 22 22 24 25 24 24 25 26 27 26 26 27 30 30 28 25 25 24
35 35 35 32 30 31 31 30 29 28 27 27 23 23 22 20 24 25 24 16 18 19 20 20 21 22 22 22 18 19 21 23 24 26 27 27 26 27 30 30 28 23 25 24
31 31 31 31 31 31 31 30 27 25 25 22 18 16 18 15 13 12 15 18 20 20 19 18 21 15 14 15 17 21 22 22 23 24 25 25 27 28 27 26 25 23 23 23
31 30 29 29 28 27 25 24 24 23 23 16 15 10 9 13 13 10 16 19 20 16 16 18 16 12 12 14 17 18 17 17 17 17 18 19 20 22 22 22 21 19 18 18
31 30 29 27 25 25 25 24 23 20 18 13 6 6 8 17 14 16 12 17 18 12 15 19 15 8 11 12 14 13 13 15 11 12 12 13 15 15 17 17 16 16 16 16
31 31 29 26 24 22 24 23 18 16 12 10 9 11 14 18 18 15 14 17 17 14 16 17 7 6 6 9 10 10 8 10 8 8 8 10 11 11 13 11 11 12 12 13
30 28 25 25 23 22 17 18 21 18 13 16 11 8 16 10 7 18 18 13 7 6 6 11 9 7 2 -1 2 5 4 7 5 5 5 7 7 9 8 8 8 9 9 10
27 26 24 23 19 18 16 18 19 18 18 19 17 17 18 18 9 11 8 8 11 8 5 6 7 6 0 -4 -4 -3 -3 2 1 4 3 4 3 5 4 5 6 6 7 8
23 19 17 17 17 16 17 18 18 17 17 12 12 5 10 12 11 10 7 6 8 8 5 1 -0 -2 -0 -2 -4 -4 -2 4 -0 2 3 -1 -0 1 0 2 3 5 5 6
21 20 17 16 17 17 17 16 13 11 11 3 4 4 12 9 4 8 1 -2 -2 3 -3 -4 -1 -3 -2 4 -3 -2 -5 -4 -5 1 -1 -9 -4 -3 -3 -2 1 1 2 4

GFSNGP_sfc_dewp_057.txt.gz
Dewpoint
27 26 25 24 25 27 26 26 24 24 25 26 26 25 26 27 28 38 44 45 43 43 46 48 47 46 44 44 45 46 45 45 46 44 43 38 35 35 35 35 33 33 34 34
29 29 28 26 26 25 26 25 27 26 24 27 26 30 29 29 30 35 38 41 44 46 47 48 45 44 45 46 46 46 44 40 38 37 36 37 37 35 34 33 33 34 32 33
23 26 26 24 26 25 25 25 24 22 24 28 29 31 32 33 35 37 41 45 46 47 47 45 44 44 44 41 36 35 37 36 37 37 35 34 32 34 34 34 33 31 32 32
24 25 17 25 29 27 26 26 26 27 29 30 32 35 37 37 37 39 38 38 38 39 39 38 35 33 33 33 34 34 33 32 32 34 34 37 39 39 35 32 30 30 31 32
24 25 25 27 24 24 22 23 29 31 32 34 36 35 36 36 33 31 31 30 30 31 32 32 31 31 29 31 31 29 30 33 37 39 39 39 36 32 31 30 29 30 31 31
25 22 21 29 29 25 26 22 29 31 34 35 33 27 34 32 31 30 29 28 28 28 28 27 26 27 27 27 28 30 32 37 39 38 36 32 31 31 30 29 29 29 29 29
23 22 27 29 29 26 19 22 32 35 34 33 31 32 33 31 28 27 26 26 27 27 27 27 27 27 27 28 29 34 37 36 34 32 31 30 28 28 28 28 28 28 28 28
26 20 23 32 30 22 27 36 36 37 38 38 33 32 31 29 28 26 25 25 26 26 27 29 29 28 28 29 31 31 30 29 28 28 27 27 28 27 27 28 27 27 24 26
30 30 34 37 31 36 37 37 38 38 39 35 32 31 30 29 28 27 27 26 26 29 30 30 30 29 29 29 28 28 28 26 26 27 27 27 27 27 27 27 26 26 27 27
33 37 39 40 40 39 39 38 39 40 38 33 32 31 30 29 29 29 28 28 30 29 30 31 32 30 29 28 29 28 27 26 27 27 27 27 28 28 27 26 26 27 27 27
36 38 39 40 37 37 36 36 35 34 33 33 32 30 29 28 29 31 32 31 31 30 28 25 26 27 29 30 29 28 28 28 28 28 28 28 28 28 28 28 29 28 29 28
33 38 37 38 37 37 35 35 34 33 32 32 31 29 30 31 32 31 32 29 26 26 26 26 28 30 30 31 30 29 27 27 28 28 27 27 27 27 29 30 30 31 31 30
36 39 38 37 36 35 35 33 33 32 31 30 30 32 33 32 33 30 27 27 26 26 28 29 28 25 25 27 28 25 24 25 25 26 26 26 26 26 25 26 28 29 29 30
37 36 35 35 34 33 33 33 33 32 32 33 33 32 29 28 28 28 26 25 26 29 28 26 22 21 23 25 23 23 24 25 24 23 23 23 23 24 25 24 23 24 26 26
36 37 36 34 33 32 32 32 31 30 30 28 29 29 29 26 22 23 24 26 26 22 20 20 19 20 23 23 21 22 20 19 20 20 21 21 22 23 23 24 23 23 23 24
34 33 33 33 32 32 31 29 28 27 28 29 29 30 26 24 24 25 25 25 22 19 17 16 21 21 22 16 15 17 18 19 19 20 20 21 22 22 21 21 20 20 21 24
33 33 33 32 32 31 29 28 28 27 28 28 27 24 23 23 24 24 21 21 20 19 20 20 17 14 14 15 17 18 18 17 16 18 16 17 15 16 18 18 19 18 18 21
36 35 34 34 32 31 29 29 28 28 27 24 22 22 22 22 22 21 19 19 17 17 19 16 13 11 12 14 15 15 14 14 14 12 13 12 12 14 13 14 14 15 14 16
35 35 35 33 31 30 29 28 28 27 23 22 22 21 21 21 22 19 18 14 13 14 17 13 15 10 8 12 13 12 11 10 8 9 8 7 8 8 9 9 8 9 10 12
33 32 31 30 29 28 28 27 25 22 20 21 20 19 18 15 17 16 16 14 13 15 16 12 10 8 7 8 8 9 7 6 5 4 3 3 4 2 5 4 4 5 5 7
31 30 29 26 25 25 25 23 20 17 19 19 18 16 16 16 15 13 14 15 13 15 15 12 11 10 7 7 8 3 -2 -4 -5 -1 -3 -2 -1 -1 1 -0 0 2 2 3
30 29 27 25 23 22 22 20 18 19 17 15 12 13 14 16 13 13 9 14 15 9 15 14 12 2 5 2 7 -5 2 -1 -5 -7 -6 -6 -6 -6 -3 -4 -4 -1 -1 0
29 28 27 24 22 20 21 19 18 17 15 14 13 14 16 17 16 11 12 15 16 9 14 8 3 -2 -4 -10 -11 -14 -13 -12 -14 -14 -11 -16 -15 -11 -5 -7 -6 -4 -4 -2
27 25 24 22 20 18 17 18 16 16 15 15 11 8 16 11 7 16 14 6 1 -3 -2 -2 -4 -2 -9 -15 -16 -17 -16 -17 -18 -20 -8 -14 -20 -15 -11 -11 -9 -8 -7 -5
24 22 22 21 19 18 18 19 17 16 17 14 15 17 16 14 7 9 2 2 5 2 -3 -7 -5 -7 -16 -16 -18 -17 -18 -18 -20 -21 -18 -22 -19 -17 -16 -16 -13 -11 -10 -8
22 20 19 19 19 19 18 17 17 16 13 8 8 0 7 7 8 7 2 -2 -0 -2 -5 -13 -16 -16 -17 -15 -16 -14 -14 -11 -18 -19 -20 -22 -20 -18 -17 -15 -15 -14 -11 -9
19 19 18 18 17 16 15 15 14 13 10 4 4 0 6 5 2 2 -8 -12 -13 -13 -14 -14 -16 -14 -14 -17 -17 -13 -12 -16 -20 -17 -24 -25 -22 -23 -21 -18 -16 -15 -13 -10

GFSNGP_sfc_dewp_060.txt.gz
Dewpoint
26 25 24 24 24 26 25 25 23 24 24 25 26 26 25 26 27 30 35 45 45 45 48 48 48 46 45 44 45 46 46 45 45 46 45 43 39 40 41 40 37 35 35 35
28 28 28 28 26 27 26 26 25 25 24 27 27 30 30 30 32 38 41 42 45 43 46 48 46 46 45 45 45 45 44 44 44 43 40 39 39 39 37 34 34 36 35 34
23 26 26 24 26 26 26 26 26 24 26 27 30 31 32 35 38 41 42 44 45 46 45 45 44 45 44 43 42 41 39 39 39 38 36 36 35 36 38 39 38 36 34 33
24 24 17 25 29 28 27 26 25 25 27 29 32 36 36 35 38 37 36 37 38 39 37 36 35 35 35 36 36 36 34 33 33 34 37 39 39 40 40 37 33 31 31 30
24 24 23 24 25 25 24 22 27 27 31 34 36 35 35 31 31 31 30 30 30 31 32 32 31 32 31 31 31 32 36 38 39 39 38 38 39 38 33 30 30 29 29 29
25 21 19 26 28 25 23 21 29 32 34 35 33 26 31 31 30 29 28 28 28 27 27 27 28 29 28 29 32 35 38 38 39 39 40 35 32 31 30 28 28 29 28 28
23 22 27 31 28 26 19 24 30 33 34 35 30 30 31 28 27 26 27 27 27 27 26 27 27 27 28 31 33 37 37 37 34 32 30 29 28 27 27 27 27 27 28 28
25 22 24 30 28 23 28 34 34 34 35 35 33 31 29 27 26 26 25 26 27 28 29 29 29 29 29 30 30 30 29 28 28 28 27 27 27 27 27 27 26 27 25 27
31 31 34 33 30 33 34 35 36 37 38 34 32 30 29 26 26 26 26 29 29 29 29 30 29 30 30 30 29 29 28 27 27 27 27 27 27 27 27 26 26 26 27 27
32 34 37 39 39 39 39 38 39 40 34 33 31 30 28 27 27 26 29 29 29 30 27 26 28 29 30 29 28 28 28 28 28 27 28 28 27 28 27 25 25 27 27 27
34 38 39 39 38 37 37 37 36 34 33 32 31 29 28 28 29 30 30 30 27 25 26 29 29 29 30 29 27 27 26 26 26 26 26 26 26 26 26 26 27 27 27 27
33 36 36 36 37 37 36 35 35 33 32 32 30 29 29 31 31 30 26 26 26 26 28 28 25 24 25 26 24 23 22 24 25 24 23 22 22 21 24 25 26 27 27 26
35 39 37 37 36 35 34 33 33 32 31 29 29 31 31 31 28 28 26 26 27 29 26 22 20 21 24 24 24 24 23 22 21 20 20 21 21 21 20 21 24 25 25 24
37 37 35 35 34 33 33 32 32 31 31 32 32 31 28 27 26 25 25 28 28 24 21 20 20 22 22 21 22 21 19 20 19 20 19 20 20 20 22 22 19 18 21 21
35 36 35 34 33 32 32 32 31 31 30 29 29 27 25 23 22 25 27 22 19 19 19 20 19 20 17 17 15 17 17 18 18 17 17 18 18 16 17 17 17 18 17 16
33 34 33 32 32 31 31 30 29 29 29 29 26 24 23 24 25 25 25 23 19 18 19 17 16 14 15 15 16 16 16 17 16 16 15 15 14 14 14 14 15 14 14 12
33 32 32 31 30 29 29 29 29 29 29 27 24 23 24 24 22 21 19 19 20 20 18 16 13 11 13 13 15 13 14 14 12 13 12 11 10 11 11 11 9 9 9 9
36 35 33 32 30 28 28 29 29 29 27 24 23 24 23 23 22 21 19 18 19 18 15 12 11 10 10 11 11 10 11 10 9 9 8 7 6 7 5 8 5 5 5 6
34 33 33 31 30 30 30 30 28 24 24 23 22 22 23 22 20 19 16 15 14 16 13 11 14 9 6 11 8 9 8 4 4 5 3 1 0 2 0 3 1 1 2 2
34 33 33 32 32 30 28 26 23 22 21 21 21 20 20 19 18 15 15 14 14 16 13 10 9 8 6 7 6 7 4 -3 2 -1 -5 -3 -10 -10 -8 -2 -2 -3 -3 -1
32 31 30 29 27 26 26 23 21 19 20 21 19 18 18 17 15 14 15 14 13 17 13 12 10 9 7 7 7 1 -5 -9 -10 -9 -9 -15 -17 -12 -12 -12 -11 -8 -6 -4
28 27 27 26 25 22 20 19 20 20 18 17 16 16 16 16 14 14 11 15 14 12 14 13 12 2 5 1 5 -7 -0 -5 -10 -14 -13 -17 -19 -20 -16 -15 -15 -11 -8 -8
29 27 26 24 22 19 18 18 18 17 16 16 15 16 16 17 16 13 13 15 15 10 14 8 4 -3 -6 -11 -13 -16 -16 -15 -17 -18 -20 -21 -24 -25 -21 -16 -13 -14 -12 -11
28 27 22 21 19 17 15 15 15 16 16 16 12 11 15 12 10 15 14 6 1 -2 -1 -3 -6 -4 -10 -17 -19 -19 -19 -20 -21 -25 -17 -19 -28 -27 -21 -21 -17 -15 -14 -14
26 22 19 19 18 18 17 16 16 16 16 16 16 17 15 14 7 9 2 3 5 1 -3 -8 -7 -9 -19 -20 -19 -20 -19 -18 -22 -25 -24 -26 -26 -24 -22 -22 -21 -19 -16 -15
21 20 20 20 19 19 18 18 17 15 12 11 12 7 6 8 8 6 -1 -2 -1 -3 -6 -14 -16 -18 -19 -18 -20 -20 -17 -8 -18 -22 -23 -26 -29 -23 -24 -21 -21 -19 -18 -16
20 20 19 18 18 17 17 17 16 14 11 9 9 8 8 6 3 1 -8 -11 -13 -15 -16 -16 -14 -15 -15 -21 -20 -18 -17 -17 -18 -18 -25 -30 -31 -30 -27 -25 -22 -21 -19 -17

GFSNGP_sfc_dewp_063.txt.gz
Dewpoint
25 23 27 28 28 30 28 29 28 27 25 26 28 28 28 28 29 31 34 36 46 48 52 52 52 50 49 49 49 48 47 46 46 46 46 45 44 43 43 43 43 42 39 37
27 29 26 25 25 28 29 27 26 26 26 29 29 29 29 33 35 41 44 45 45 45 49 50 48 47 46 47 47 47 46 46 45 44 43 42 43 42 41 38 37 37 38 37
26 27 28 28 29 27 28 28 29 27 30 29 29 30 33 37 41 42 42 44 44 45 46 47 46 46 46 45 45 44 44 43 41 41 40 39 37 37 39 41 41 41 40 38
29 27 26 29 29 29 29 29 28 26 27 28 30 35 35 36 40 39 39 41 41 41 41 41 41 41 42 40 40 39 37 36 36 37 39 40 41 41 42 41 40 37 35 34
31 27 26 25 27 28 28 24 29 28 28 32 36 35 33 32 33 34 34 34 35 36 36 36 37 38 36 35 34 35 37 38 39 40 39 40 40 40 38 34 33 32 31 32
28 27 25 30 27 29 27 24 28 30 33 36 35 34 33 31 31 31 31 32 31 32 33 33 33 34 35 35 36 37 38 38 39 41 40 37 34 32 32 31 29 30 29 30
28 32 30 31 29 30 26 28 31 32 34 37 32 34 34 30 29 29 29 29 29 30 29 29 32 34 35 36 36 37 37 32 31 29 29 29 30 29 29 29 30 32 31 32
29 31 27 32 26 29 34 33 33 35 37 38 34 32 30 29 28 28 27 27 28 28 28 30 32 31 29 28 28 28 28 28 28 29 28 28 30 30 30 29 30 29 33 30
33 34 38 33 35 34 33 35 37 37 37 35 32 30 28 27 27 27 28 27 28 28 29 29 28 29 28 28 27 28 29 29 28 26 25 24 23 22 21 21 23 24 24 26
35 35 35 38 39 39 38 37 38 39 36 34 32 29 28 27 27 28 28 29 27 27 27 28 29 28 28 29 28 26 24 23 22 21 19 19 18 18 19 22 23 23 23 23
36 36 39 40 41 39 38 39 37 36 35 34 31 28 27 26 28 28 29 26 26 28 28 27 26 24 23 22 22 21 21 19 19 19 19 17 17 19 21 23 24 23 23 23
36 38 37 37 40 40 38 38 36 34 33 32 30 29 28 29 30 28 26 26 28 27 24 22 22 21 20 21 19 18 16 17 19 19 19 17 17 18 21 22 23 23 21 23
38 39 37 37 36 37 36 36 35 33 32 31 30 30 30 30 27 27 26 28 26 22 20 20 20 18 19 20 17 16 15 16 17 18 17 18 17 17 17 18 18 19 19 18
37 37 36 36 36 35 34 33 32 31 30 31 32 31 28 27 26 26 27 26 21 19 19 20 18 14 14 14 16 17 16 18 17 18 17 17 16 16 17 17 16 17 16 16
35 36 36 34 33 32 32 32 31 31 31 30 29 28 26 25 26 26 23 20 19 19 19 17 13 13 15 16 14 14 13 15 17 17 17 16 15 15 15 14 14 13 13 12
34 34 33 33 32 32 32 31 31 30 29 28 26 25 25 26 23 21 19 19 19 17 14 17 13 13 14 14 13 12 13 16 13 14 13 12 12 12 11 11 11 11 10 10
33 32 32 32 31 31 31 31 30 29 27 25 25 25 25 24 22 20 19 19 19 18 16 15 12 11 12 12 10 10 11 11 11 10 10 9 10 10 9 9 9 8 9 9
38 35 34 33 31 30 30 31 30 28 26 27 27 26 25 24 20 18 19 19 18 17 13 11 9 9 9 7 7 9 10 8 8 9 7 8 6 6 6 6 6 5 5 6
35 34 33 32 31 31 31 30 29 28 27 27 26 25 24 23 19 18 18 19 17 14 11 11 13 8 7 9 7 8 8 6 6 5 5 4 5 3 3 4 5 4 3 3
32 31 31 31 31 30 28 28 28 27 26 25 24 23 21 21 19 18 18 16 16 15 12 10 8 7 6 7 7 6 6 6 3 4 5 3 3 2 2 -1 -0 1 2 2
31 30 30 29 28 28 28 28 26 23 21 24 23 21 20 18 17 17 16 13 15 15 12 12 10 8 7 7 7 9 8 7 5 3 3 2 1 0 -0 -1 -1 -0 -0 0
29 27 27 27 26 25 25 24 21 22 21 20 20 19 18 17 17 16 17 15 15 16 14 13 11 7 7 6 7 9 7 6 4 3 2 2 1 -1 -2 -2 -3 -3 -2 -2
28 27 26 25 24 21 20 19 20 20 19 19 19 19 18 16 15 15 14 14 14 14 14 14 8 4 1 9 8 7 6 4 3 1 1 0 -1 -2 -4 -5 -6 -5 -4 -4
26 25 24 23 20 17 15 15 16 17 18 18 17 17 17 16 16 16 16 11 8 13 13 11 8 2 -0 6 6 5 4 4 3 1 0 -6 -2 -4 -4 -6 -8 -7 -7 -7
25 24 21 19 17 17 15 16 16 16 17 16 17 16 16 15 17 15 14 12 10 10 11 1 0 -2 5 4 4 3 3 3 2 1 -0 -2 -3 -5 -6 -7 -9 -9 -9 -8
22 21 21 21 21 19 18 17 15 14 14 15 15 15 14 14 13 12 11 9 8 6 8 7 5 4 4 3 2 1 1 1 1 0 -3 -3 -5 -6 -8 -10 -11 -11 -10 -9
20 19 18 17 16 17 18 18 17 15 15 15 15 15 14 13 11 10 7 7 6 5 4 4 4 2 2 1 1 0 -1 -0 -3 -4 -3 -5 -7 -8 -10 -12 -12 -12 -12 -11